User: anonymous   Login
Location: Unspecified
(0.0000°N, 0.0000°E)
Time: 19:58:34
(UTC+00:00)
Language:

Okean 1-7 - Orbit

View from above orbital plane
View from above orbital plane
View from above satellite
View from above satellite

Ground track
Ground track

The orbit data is extracted from the following two-line orbital elements,

1 23317U 94066A   18351.49865064  .00000170  00000-0  15905-4 0  9993
2 23317  82.5369 322.5878 0020999  47.8962 312.4036 14.87621201307451
Epoch (UTC): 17 December 2018 11:58:03
Eccentricity: 0.0020999
inclination: 82.5369°
perigee height: 591 km
apogee height: 620 km
right ascension of ascending node: 322.5878°
argument of perigee: 47.8962°
revolutions per day: 14.87621201
mean anomaly at epoch: 312.4036°
orbit number at epoch: 30745

The dashed part of the orbit path shows where the satellite is in the earth's shadow,  

DLR